ROMMA est une association bénévole à but non lucratif. Votre soutien est indispensable : ADHERER à ROMMA ou FAIRE un DON

Taninges - (74, Haute-Savoie)

Vallée du Giffre (635 m)   Longitude: 06° 35' 38" E   Latitude: 46° 06' 21" N Station romma n°98
 

Détail journalier du     <<     >>

Température Precipitation Humidité Pression Vent Dir Rafale Dir. rafale Ensol.
Heure (°C) (mm) (%) (hPa) (km/h) (km/h) (min)
01:00 8.3095100503OSO0
02:00 8.3095100503OSO0
03:00 8.2095100402OSO0
04:00 8.2096100503OSO0
05:00 8.109610041OSO5OSO0
06:00 7.90.29610041ENE5NNE0
07:00 8.209610041O5ESE0
08:00 8.509610041O5O0
09:00 8.909610041OSO5OSO0
10:00 9.509310042OSO10OSO0
11:00 10.809010043OSO6OSO0
12:00 11.808510044OSO11OSO0
13:00 12.708110046OSO11OSO0
14:00 13.108010046SO11SO0
15:00 13.307710047OSO15SO0
16:00 13.907310035OSO11OSO0
17:00 14.107110032O6O0
18:00 14.207010032SSE5SSE0
19:00 14.107210031SE5SE0
20:00 13.6076100303SE0
21:00 12.008110041ENE6ENE0
22:00 11.408410053ENE6ENE0
23:00 10.808810051ENE3ENE0
minuit 10.3091100402ENE0

Graphique du 18-05-2019

 

Serveur OMMA